Regional Weather Roundup
Issued by NWS

Home | Current Version | Previous Version | Text Only | Print | Product List | Glossary Off
Versions: 1 2 3 4 5 6 7 8 9 10 11 12 13 14 15 16 17 18 19 20 21 22 23 24 25 26 27 28

000
ASUS45 KSLC 080910
RWRUT

UTAH REGIONAL WEATHER ROUNDUP
NATIONAL WEATHER SERVICE SALT LAKE CITY UT
200 AM MST THU DEC 08 2016

UTZ001>011-023>025-081000-

NORTHERN UTAH

CITY           SKY/WX    TMP DP  RH WIND       PRES   REMARKS
BRIGHAM CITY     N/A     15   8  72 NW5       30.33S WCI   8
HILL AFB       MOCLDY    13   3  64 E17       30.28S WCI  -4
LOGAN          CLEAR     12   7  80 CALM      30.33S
OGDEN          PTCLDY    15   6  67 S6        30.29S WCI   6
SALT LAKE CITY PTCLDY    20   9  62 S3        30.30S
TOOELE VALLEY  PTCLDY    18  12  79 S8        30.31S WCI   7
WENDOVER       MOCLDY    19   9  63 CALM      30.29S
HEBER CITY     PTCLDY    10   5  79 CALM      30.26S
WEST JORDAN    CLEAR     17  15  92 CALM      30.29S

$$

UTZ011>015-024>027-081000-

CENTRAL/NORTHEAST UTAH

CITY           SKY/WX    TMP DP  RH WIND       PRES   REMARKS
PROVO AIRPORT  PTCLDY    18   8  65 CALM      30.31R
MOAB/CANYONLAN PTCLDY    18   3  52 CALM      30.29S
DELTA          CLOUDY    16   7  67 E5        30.27S WCI   9
PRICE          PTCLDY    12  -7  42 SE3       30.24R
ROOSEVELT      CLOUDY    12   5  73 W3        30.35S
VERNAL         CLOUDY    11   1  64 W6        30.32R WCI   1

$$

UTZ013>016-019>022-027-081000-

SOUTHERN UTAH

CITY           SKY/WX    TMP DP  RH WIND       PRES   REMARKS
BRYCE CANYON   NOT AVBL
CEDAR CITY     CLOUDY    19   9  65 CALM      30.19S
MILFORD        CLOUDY    15   6  67 CALM      30.25R
ST GEORGE        N/A     30   0  27 CALM      30.26
HANKSVILLE     PTCLDY    14   1  57 CALM      30.33S
BLANDING       PTCLDY    19  -1  43 N10       30.31F WCI   7

$$

REGIONAL REPORTS     COLORADO/ARIZONA

CITY           SKY/WX    TMP DP  RH WIND       PRES   REMARKS
CRAIG, CO      CLOUDY    -9 -15  75 CALM      30.31R
GRAND JUNCTION CLOUDY    16   7  67 SE6       30.31S WCI   7
RIFLE, CO      CLOUDY     6   0  76 SE3       30.34R
MONTROSE, CO   CLOUDY    11   3  70 SE10      30.33S WCI  -3
CORTEZ, CO     CLOUDY    10   3  73 NE3       30.27R
COLORADO CITY    N/A     32   9  37 NE12      30.23R WCI  23
PAGE, AZ       CLEAR     28   4  35 SW3       30.25S
GRAND CANYON   PTCLDY    25  10  53 NE6       30.20  WCI  18
KINGMAN, AZ    CLEAR     34   5  29 E8        30.18R WCI  27
FLAGSTAFF, AZ  PTCLDY    18  15  88 CALM      30.18R

$$

REGIONAL REPORTS    NEVADA/IDAHO/WYOMING

CITY           SKY/WX    TMP DP  RH WIND       PRES   REMARKS
LAS VEGAS, NV  PTCLDY    38   7  27 S5        30.20S WCI  34
ELY, NY        CLOUDY    16   6  65 CALM      30.16F
ELKO, NV       CLOUDY    21   5  50 E6        30.18R WCI  13
POCATELLO, ID  CLOUDY    -5  -8  87 N3        30.33S
BURLEY, ID     PTCLDY     8   4  83 NE9       30.29F WCI  -5
FORT BRIDGER,    N/A      1  -2  85 CALM      30.24R
EVANSTON, WY   CLOUDY     2 -11  54 SE3       30.18S
ROCK SPRINGS,  CLOUDY    -6  -9  86 NE3       30.23F
KEMMERER, WY     N/A     -9 -15  77 N13       30.19S WCI -30

$$




USA.gov is the U.S. government's official web portal to all federal, state and local government web resources and services.